Theta_e
316 323 326 327 324 324 326 324 334 348 346 344 346 345 345 344 345 346 334 347 353 347 345 343 339 334 332 338 339 335 323 322 324 324 325 326 327 327 326 327 327 327 327 327 328 329 335 337 339
320 324 326 326 325 328 326 323 348 344 341 341 342 342 342 344 341 338 335 342 352 346 344 340 335 328 328 337 340 337 329 321 323 324 324 325 327 327 326 326 327 327 328 327 327 327 327 329 333
319 323 325 322 323 328 325 320 344 341 341 346 345 343 342 344 341 338 341 352 348 343 341 338 332 328 332 337 340 339 334 324 322 324 324 324 324 325 325 325 326 328 328 329 328 327 327 326 326
322 323 323 323 329 329 328 320 342 343 346 349 350 352 347 348 341 346 343 352 345 342 340 337 335 329 334 337 340 340 337 330 323 323 325 325 324 324 324 325 326 330 330 330 329 328 326 326 326
322 322 318 324 328 329 323 322 328 330 335 349 349 352 353 352 353 351 337 343 345 342 340 338 337 334 330 338 340 340 339 336 330 324 324 325 325 325 325 325 326 328 330 330 329 328 326 325 325
320 318 314 318 322 327 323 323 323 323 328 337 340 342 348 349 353 348 340 337 335 336 341 339 338 335 334 331 332 336 338 338 337 333 329 328 327 326 325 326 326 327 327 328 328 328 327 324 324
317 313 315 317 316 322 323 323 321 322 325 327 330 324 325 336 348 349 344 339 335 331 343 341 340 340 337 336 334 332 330 329 332 335 335 334 333 331 329 328 327 327 327 327 328 328 328 324 324
320 312 315 315 314 322 322 323 322 323 324 327 332 325 325 331 344 350 347 345 341 344 344 345 345 343 344 345 345 344 342 339 332 329 328 330 333 335 335 334 333 332 330 329 329 329 330 326 324
319 310 311 318 320 321 321 321 322 322 323 324 324 327 325 324 332 350 347 348 349 347 346 351 348 345 346 349 349 346 345 339 341 341 339 334 330 328 328 331 334 336 335 334 333 332 330 330 326
316 311 317 320 319 318 318 321 322 322 323 323 324 325 324 324 335 351 340 350 340 348 339 341 346 350 351 350 351 350 351 349 344 344 341 342 339 335 332 329 328 329 332 335 335 335 334 331 329
316 314 319 320 321 320 319 319 320 320 320 323 324 324 324 324 323 324 326 329 333 337 328 328 341 349 349 353 349 352 342 351 352 349 348 345 342 340 338 338 334 330 331 335 335 332 331 332 332
318 319 320 320 320 320 319 320 319 320 322 323 323 323 322 322 322 322 324 323 324 325 324 325 326 328 330 327 328 330 331 341 349 353 351 350 350 346 344 341 340 338 338 342 341 342 342 338 333
319 319 320 320 320 320 320 320 319 319 321 322 322 322 321 322 322 322 323 323 323 323 323 324 324 324 322 321 322 321 322 326 333 343 348 342 344 350 348 345 342 340 339 342 342 343 344 340 336
319 319 320 319 320 320 320 320 320 321 320 321 321 321 320 320 320 322 322 323 322 321 321 321 322 322 321 319 315 313 314 315 319 331 339 344 343 346 347 347 343 341 340 341 343 343 344 343 341
321 318 316 318 319 320 321 319 319 321 321 321 320 320 320 320 320 321 322 322 322 321 322 322 322 321 320 317 313 312 313 314 315 316 327 335 336 343 345 347 345 344 341 340 342 343 343 343 342
319 316 316 316 317 320 319 317 318 321 320 320 319 320 320 320 320 320 322 323 324 323 323 322 322 320 319 314 315 317 318 318 318 318 321 322 327 332 336 339 345 344 344 341 341 343 344 342 340
315 318 318 318 317 319 318 317 317 320 319 320 320 320 320 320 320 321 323 323 323 323 323 323 321 320 316 315 316 317 318 319 321 321 321 323 325 326 326 330 338 345 342 342 340 338 339 342 342
317 318 317 319 319 318 317 316 318 320 320 320 320 320 320 321 320 321 324 324 324 323 323 322 321 319 315 314 315 316 316 317 317 318 323 324 325 327 330 328 331 334 340 342 341 340 338 336 337
319 319 318 318 318 318 318 316 316 318 318 318 319 319 320 319 320 321 324 324 324 323 323 322 322 319 318 317 315 315 314 314 315 316 316 316 317 319 324 330 332 333 339 339 339 338 332 336 336
318 318 318 317 317 317 315 315 315 316 317 318 317 318 319 321 321 324 324 324 323 323 323 322 322 322 321 319 318 317 316 315 314 313 314 316 316 314 314 315 320 336 338 338 338 335 333 332 334
318 318 318 317 316 315 316 316 316 317 318 319 319 319 321 323 323 325 324 324 323 323 323 323 323 322 321 320 319 319 319 316 315 313 313 313 313 313 313 314 315 324 330 334 334 334 334 331 328
318 318 318 318 316 316 317 315 316 316 318 318 319 320 319 320 323 323 323 324 324 324 324 323 322 321 320 320 320 320 319 319 317 313 312 313 313 313 313 314 317 319 329 331 332 333 332 331 336
319 317 317 318 317 313 314 315 315 316 318 316 319 320 319 319 318 320 322 323 323 324 323 323 322 321 321 320 320 320 319 319 317 315 314 312 311 312 312 312 314 315 322 331 330 331 330 334 332
317 315 314 313 313 315 317 317 314 318 318 317 317 320 319 319 319 318 318 318 320 321 322 323 322 321 321 320 320 319 319 318 317 316 315 315 312 311 312 312 311 311 313 320 330 330 331 330 331
314 312 313 314 313 314 316 316 313 317 317 317 317 319 319 319 319 319 319 319 318 317 317 317 317 317 317 318 318 317 319 317 316 315 315 314 313 312 311 312 310 310 312 316 323 328 328 328 326
316 313 312 316 316 316 315 317 315 316 317 317 317 319 318 318 318 316 316 316 318 318 319 316 315 315 315 316 318 319 319 317 315 315 314 314 312 312 312 312 311 309 311 313 315 326 328 326 329
316 314 314 315 316 317 315 316 316 315 315 315 318 317 316 316 317 316 316 314 314 315 315 314 314 314 315 318 320 319 316 315 314 313 313 313 313 313 312 311 309 309 314 314 316 316 326 328 326
316 314 313 312 317 319 317 320 318 316 314 312 313 316 316 316 316 314 314 314 314 313 314 315 315 315 315 316 318 316 314 313 313 313 314 313 313 312 311 309 309 308 310 316 317 316 317 329 327
314 314 314 313 316 318 320 316 315 314 312 311 313 316 314 313 313 313 312 312 312 312 312 312 312 313 314 314 313 312 313 314 313 313 312 312 311 309 308 307 307 307 308 311 316 316 316 327 329
316 316 314 316 316 315 317 314 313 313 313 313 313 312 312 312 312 312 311 310 309 309 308 311 312 312 312 312 311 311 311 311 311 310 310 309 309 308 308 306 307 307 308 309 311 315 317 325 330
Wind_Speed
11 11 10 3 4 5 5 6 4 6 3 4 10 7 13 14 6 5 35 15 7 14 13 12 10 10 11 14 13 13 15 17 18 18 19 19 17 15 14 14 13 12 12 11 11 11 11 10 9
8 10 3 2 5 5 6 4 7 6 14 22 12 15 2 5 13 16 21 14 12 13 10 9 8 9 13 15 14 13 13 15 17 16 16 16 15 14 12 11 11 10 9 8 8 8 8 8 7
12 9 2 4 3 3 3 5 10 19 25 9 6 4 5 7 9 28 17 14 18 13 10 8 7 9 12 15 14 13 12 13 15 15 14 13 12 11 11 10 9 8 8 6 5 4 5 6 5
10 2 1 4 1 2 1 4 18 10 9 5 14 5 8 9 13 9 6 10 14 14 12 9 8 9 13 14 15 12 11 10 11 13 13 12 11 9 9 8 8 7 7 5 4 2 2 3 3
9 4 4 3 3 4 4 10 22 6 4 10 13 3 5 11 11 22 27 12 7 11 12 11 8 10 11 13 13 12 10 9 9 9 10 10 10 9 8 8 7 6 6 5 4 4 4 3 2
5 3 4 3 5 2 4 15 22 12 8 16 15 15 8 14 12 20 18 27 21 10 14 13 11 9 10 10 10 10 10 8 8 8 8 9 9 9 9 9 8 8 7 7 6 6 6 5 3
4 4 3 2 7 5 5 9 10 12 17 8 13 5 9 19 14 21 24 18 18 16 19 14 12 11 11 9 7 5 3 5 7 9 9 9 9 10 11 11 11 11 11 10 9 9 8 7 6
2 4 5 3 4 1 3 3 10 12 6 15 10 1 5 21 15 25 27 19 19 16 18 13 11 12 13 12 10 8 4 1 2 5 7 9 11 12 13 13 13 13 14 13 13 12 11 10 9
6 4 2 4 4 4 6 4 3 5 9 8 8 12 14 24 21 21 17 15 17 18 14 10 9 12 12 10 8 6 5 2 1 3 5 8 9 11 14 15 15 16 16 16 16 15 15 14 13
4 4 3 1 3 2 3 4 4 3 10 14 19 14 11 22 29 31 23 25 16 23 17 12 11 11 7 5 2 3 5 4 4 4 4 7 9 11 13 14 16 17 18 18 18 18 18 18 16
6 5 3 2 8 9 7 11 5 3 3 19 22 16 9 5 25 31 30 29 25 23 18 13 11 15 6 5 4 4 5 7 9 9 10 10 8 7 9 11 16 18 16 15 16 17 20 21 20
4 0 5 5 6 3 1 3 5 6 7 23 21 19 13 8 4 18 26 23 24 21 14 8 9 7 3 2 2 4 6 5 8 13 13 12 16 13 11 10 11 15 16 11 11 11 12 16 21
4 4 6 5 2 0 2 3 2 3 14 18 17 15 10 13 13 10 18 20 19 14 13 11 9 7 7 11 14 13 12 10 9 8 9 13 16 19 17 14 15 16 16 15 13 15 15 14 11
2 3 7 4 2 1 2 2 4 7 4 15 21 19 14 9 6 16 16 15 14 15 13 14 13 15 18 23 16 15 15 15 14 13 9 11 14 18 22 21 20 19 18 17 18 18 17 17 15
7 8 7 9 4 4 4 6 5 15 10 13 20 17 15 14 13 14 23 22 22 22 19 16 14 14 17 20 19 15 15 16 16 16 16 15 13 16 21 25 25 27 21 19 21 23 21 17 17
4 5 5 10 5 5 5 9 11 19 15 9 18 19 19 19 17 19 21 23 21 19 17 14 10 11 20 15 11 12 12 14 15 16 16 17 18 18 18 21 27 30 33 26 24 26 28 24 21
6 1 2 8 2 2 3 8 12 23 18 8 20 22 22 22 21 21 25 25 23 18 14 7 4 12 10 8 10 10 12 13 14 15 17 17 18 18 21 22 22 26 33 32 28 25 24 26 29
3 3 3 3 4 1 3 7 9 18 18 20 17 19 19 23 26 26 29 27 24 20 11 3 6 7 7 7 10 12 12 12 13 13 14 16 17 17 17 18 21 21 26 31 29 26 22 25 25
3 1 3 4 6 6 1 6 7 16 20 24 32 31 28 23 25 29 32 28 23 16 9 5 1 4 5 8 13 15 17 17 16 16 17 17 18 18 18 15 16 22 22 27 27 31 28 25 25
7 5 4 4 6 4 8 7 6 10 22 31 26 30 27 18 30 37 33 25 20 14 10 8 2 5 7 8 8 11 17 18 19 21 19 21 19 20 19 17 14 14 17 23 25 21 24 28 27
3 4 2 3 4 5 6 6 9 11 26 37 46 43 26 9 10 22 22 22 18 17 15 6 3 8 3 8 8 12 15 17 22 26 23 21 21 21 21 18 14 10 10 14 20 22 26 30 25
3 4 2 6 6 2 3 5 6 5 16 23 28 39 43 26 9 4 1 10 12 12 11 5 4 4 3 6 8 14 16 21 26 27 25 25 25 25 22 19 15 13 12 13 18 22 28 29 31
1 5 4 2 3 3 7 4 5 7 11 9 13 21 25 27 30 29 20 10 1 8 9 8 9 10 7 9 15 16 18 24 25 22 24 27 29 27 26 25 24 20 14 13 19 20 25 28 31
3 7 8 6 3 3 2 3 5 3 4 2 8 14 19 19 19 17 19 20 17 15 8 3 7 8 11 19 24 23 24 25 26 23 28 30 33 31 28 29 27 23 19 16 16 19 25 28 35
10 8 4 5 5 4 4 3 5 5 3 4 8 12 16 18 19 20 22 23 19 17 21 19 22 24 27 30 26 27 23 24 21 24 30 33 33 33 33 31 31 28 24 21 18 20 24 29 31
2 6 4 4 3 9 4 4 5 2 12 12 13 13 15 12 12 14 12 6 15 28 31 32 24 26 30 32 25 21 23 25 25 27 31 33 32 31 31 33 35 32 26 25 24 20 20 25 27
6 4 4 3 3 2 4 2 4 10 8 14 11 11 15 15 15 17 17 20 17 17 16 16 15 19 23 21 19 20 21 24 23 26 30 31 27 29 32 36 37 33 27 25 26 25 22 23 28
2 3 5 4 5 6 4 2 4 10 8 9 12 7 11 13 11 15 18 19 19 23 24 19 21 22 21 18 16 15 17 19 22 25 25 26 29 31 36 42 44 38 31 27 25 26 24 23 27
7 6 4 2 3 1 4 4 5 5 5 7 11 8 15 16 15 15 18 18 21 20 25 25 22 19 13 15 18 20 19 19 21 24 27 30 33 37 44 43 40 36 33 30 29 26 25 24 25
3 2 3 2 6 4 3 5 6 9 12 18 15 21 23 23 26 26 25 27 26 25 27 25 19 18 19 20 21 22 24 27 31 34 36 39 44 46 47 44 39 36 32 27 29 26 25 26 23
Wind_Direction
340 337 305 351 48 63 331 37 20 133 344 261 167 176 181 147 155 205 147 170 173 170 163 159 164 166 166 161 151 140 144 151 151 152 151 152 152 146 139 133 129 127 123 120 118 116 118 118 110
349 327 349 58 74 54 309 88 66 123 152 112 105 112 135 78 114 152 165 179 191 171 162 163 162 162 160 161 154 143 142 151 157 157 157 158 158 156 149 141 136 135 135 131 127 122 118 118 116
322 322 8 89 96 98 306 43 136 152 158 202 131 105 66 94 134 157 105 144 169 151 150 170 155 150 155 158 155 147 140 149 160 162 162 165 168 167 160 156 150 152 153 146 143 139 127 118 115
344 357 138 86 70 175 178 39 159 149 230 185 129 68 89 96 138 142 156 136 152 163 163 174 159 144 152 159 159 151 143 148 157 166 166 169 175 180 179 177 170 168 169 170 174 186 190 145 130
346 7 41 37 232 194 116 90 112 96 103 142 118 120 59 101 126 144 93 81 166 156 180 165 158 143 143 153 160 161 156 154 158 169 173 176 181 194 196 198 201 200 196 200 211 222 235 224 174
357 42 43 345 289 340 56 81 85 79 71 104 94 105 102 92 136 146 125 126 161 181 189 166 155 146 137 142 155 163 167 174 174 185 188 188 192 206 217 220 221 227 231 235 242 248 249 245 234
125 80 202 303 289 335 158 100 99 100 88 90 122 90 116 108 155 157 144 126 180 187 180 163 154 145 124 109 103 113 146 183 196 202 208 209 212 220 227 232 236 241 244 245 249 256 257 250 248
263 90 8 249 281 220 135 109 93 110 105 128 114 15 75 96 134 149 165 118 139 156 168 153 146 142 133 128 107 73 69 30 269 240 234 230 230 233 238 242 244 247 253 254 254 255 256 254 250
232 63 299 299 32 349 11 114 88 88 123 126 128 145 93 93 122 141 125 124 121 148 142 122 144 164 154 136 115 87 73 35 301 295 297 278 266 260 255 253 253 255 256 259 260 260 259 257 254
115 104 243 146 115 67 30 60 43 27 100 129 131 133 121 101 105 135 131 137 134 134 123 131 164 160 145 171 141 30 340 318 270 292 290 291 277 271 268 268 264 260 260 262 264 265 264 261 259
169 176 192 14 87 54 23 14 28 124 36 158 140 141 135 132 116 126 128 129 124 133 135 131 118 135 155 174 205 240 308 263 268 273 278 283 272 273 276 286 271 266 261 268 269 270 272 271 267
82 96 134 150 93 73 45 26 360 48 154 149 142 146 141 164 183 140 145 148 145 148 154 156 126 127 125 45 337 305 307 325 253 260 273 287 283 273 278 285 297 283 266 271 275 276 296 285 266
72 15 349 153 104 46 136 321 220 273 158 159 161 170 163 161 184 195 158 157 168 183 180 193 216 245 296 301 290 292 285 284 290 289 253 282 290 275 272 279 282 293 282 269 276 276 281 294 282
358 16 320 259 245 235 288 270 346 269 291 184 171 175 174 184 186 210 204 196 204 233 255 273 277 286 296 312 288 285 297 293 273 272 283 268 276 278 276 273 265 271 279 278 272 271 271 274 282
349 355 342 299 273 197 158 327 274 286 284 307 198 179 179 185 219 224 214 215 215 212 219 231 251 280 302 319 308 297 305 303 301 285 266 266 281 284 278 276 269 264 270 280 269 265 264 268 275
20 56 346 284 186 245 146 255 268 281 288 301 206 196 210 206 211 222 216 218 204 213 217 236 271 328 334 324 328 327 321 314 309 303 305 295 277 268 276 272 267 264 261 268 273 268 262 260 264
11 251 286 319 80 78 128 249 285 296 311 303 202 208 216 225 218 203 206 212 218 221 218 207 323 343 349 335 336 335 338 328 317 308 305 303 301 298 275 277 269 265 260 264 268 274 271 267 263
241 309 301 289 301 276 336 308 324 321 320 308 293 270 261 245 218 206 194 195 196 204 194 246 329 356 22 354 332 326 318 310 315 322 322 319 325 317 315 283 282 267 265 266 262 263 270 273 276
173 218 294 289 357 22 179 232 272 333 334 324 308 301 297 268 234 208 198 192 196 209 225 238 259 89 16 344 333 327 329 328 322 316 319 320 323 328 320 318 290 274 263 268 270 267 271 277 261
32 54 355 312 350 46 330 317 306 327 358 354 329 307 283 233 192 186 185 193 211 224 220 238 226 359 341 334 333 336 341 332 330 324 317 303 312 328 331 332 324 294 280 267 267 266 272 270 261
53 80 342 247 327 342 356 342 357 24 40 36 31 41 49 58 143 173 187 203 215 228 230 216 298 305 317 317 314 312 316 327 335 331 320 313 315 316 323 326 326 314 294 284 265 272 263 267 264
27 297 330 341 38 324 18 287 333 34 34 39 41 46 45 48 75 59 329 207 222 207 194 184 226 199 227 272 286 309 316 312 325 332 328 325 317 312 317 325 321 316 297 269 271 275 267 252 264
279 30 0 300 339 53 341 66 271 2 22 9 33 59 59 57 55 55 42 33 80 209 199 192 200 186 193 253 288 297 306 302 309 315 322 326 324 313 309 314 318 311 304 277 268 272 275 267 263
322 17 28 24 61 50 214 104 325 5 280 302 42 48 46 52 54 51 50 40 37 39 24 199 203 219 248 290 290 288 291 296 305 312 316 319 326 318 311 311 313 314 308 281 265 256 254 258 267
42 43 341 358 356 234 307 39 236 232 237 74 54 56 35 31 26 19 1 336 337 349 330 319 299 304 309 296 283 288 274 288 299 306 309 314 320 320 313 314 311 310 304 294 272 267 261 261 268
355 124 148 287 245 283 292 224 187 334 60 49 49 41 33 44 38 44 40 13 288 281 284 303 298 297 293 284 275 264 264 283 291 297 302 308 311 317 317 318 317 309 302 296 286 264 265 269 258
322 7 216 226 235 325 212 7 216 50 35 27 63 44 17 5 358 2 0 8 354 334 315 322 327 298 283 297 275 258 261 280 293 293 297 302 306 310 314 314 317 311 302 294 295 279 264 270 255
96 279 7 6 332 306 342 340 264 1 351 350 346 9 18 9 2 8 0 355 359 352 344 330 319 303 298 288 268 265 277 278 281 287 287 290 297 306 310 312 309 304 295 291 291 283 259 266 255
339 8 7 135 156 253 289 259 16 25 301 332 343 360 6 14 2 343 342 340 334 337 334 323 312 306 291 270 267 270 270 270 272 278 284 293 298 303 307 310 305 300 295 283 281 278 265 256 255
239 263 149 138 284 239 204 258 59 40 20 15 8 350 345 337 333 328 328 324 329 327 322 307 292 285 279 279 280 280 280 284 287 291 293 296 299 301 303 304 298 293 292 284 272 271 264 253 257